Theta_e
328 329 323 324 327 327 328 328 329 330 330 332 334 333 333 333 333 333 332 333 332 332 331 332 333 333 332 330 330 331 333 332 331 332 333 332 332 332 332 332 333 333 332 332 332 332 331 332 332 332 333 332 331 329 327 327 325 323 322 322 321 322 322 321 322 323 324 324 323 321 316 313 313 319 322 324 333 337 338 338 335 333 332 333 336
322 322 319 325 326 322 321 321 323 328 331 333 333 332 333 332 331 331 332 333 333 332 332 333 334 333 332 332 330 332 334 333 332 333 333 333 331 330 331 331 332 332 333 334 334 333 333 333 333 333 333 333 333 331 331 330 329 327 325 324 322 321 321 321 321 322 324 326 328 327 322 316 312 312 316 324 334 338 339 340 339 336 332 332 335
318 317 316 322 322 316 314 314 317 321 326 328 326 325 326 328 327 327 330 331 331 331 330 331 332 331 330 331 330 331 332 332 333 333 333 333 332 330 330 330 331 332 333 333 334 334 334 334 334 334 334 333 333 332 332 331 331 330 328 327 326 323 323 323 323 322 323 325 329 331 327 320 314 311 315 324 333 337 339 340 340 338 334 332 333
317 316 316 318 317 313 312 312 313 314 317 318 317 316 317 319 320 321 323 325 327 327 325 325 328 328 328 329 329 329 328 329 330 331 331 331 331 330 330 330 330 331 331 331 332 332 333 333 333 333 333 333 333 333 332 332 332 332 330 329 328 326 325 325 324 323 322 322 326 330 331 327 320 315 318 321 327 334 339 340 340 339 336 333 332
317 316 315 315 314 312 312 313 313 313 313 313 314 313 314 314 314 315 316 318 320 319 319 320 322 323 324 325 326 327 327 328 328 329 329 330 330 329 330 330 330 330 329 329 330 331 331 332 332 333 332 332 332 332 332 332 333 332 331 329 328 327 326 325 325 325 323 322 323 327 330 330 327 324 326 323 322 327 335 339 340 339 336 334 332
317 315 315 314 313 313 313 314 314 314 314 314 314 314 314 314 314 314 314 314 315 315 316 317 317 317 318 319 320 321 323 325 325 326 326 327 328 328 329 330 330 330 330 330 330 330 329 330 330 331 330 329 329 330 331 332 332 331 331 329 328 327 327 326 326 326 326 324 322 324 328 330 329 329 331 329 323 318 324 333 336 336 335 333 331
315 314 314 313 313 313 313 314 314 314 314 313 313 313 313 313 314 314 314 313 314 314 313 314 313 314 314 315 315 316 317 318 318 318 318 320 321 323 325 326 327 328 329 330 331 330 329 329 329 329 328 327 328 328 329 331 331 330 330 328 328 327 327 327 327 327 327 327 324 323 325 328 330 330 330 330 329 321 318 323 325 325 327 330 330
315 314 314 313 314 313 314 314 314 313 312 312 311 311 311 312 312 312 312 312 312 312 312 312 312 312 312 313 313 313 314 314 314 314 315 315 316 317 318 319 320 321 323 325 326 327 327 327 327 327 327 327 327 328 328 329 329 329 329 328 328 328 328 328 327 326 326 327 327 325 323 325 329 332 331 330 332 329 325 324 323 319 318 321 324
315 314 313 314 313 314 314 314 313 312 311 311 311 311 311 311 310 310 310 310 310 310 310 310 310 310 310 311 311 311 311 312 312 312 313 313 313 314 314 314 314 314 315 315 316 317 318 319 319 320 321 323 324 325 326 327 328 328 329 329 329 328 328 328 326 324 322 323 327 328 325 323 325 330 332 331 331 330 328 329 328 325 321 318 318
315 314 314 314 313 314 314 313 312 311 310 310 310 310 310 310 310 310 309 309 309 309 308 308 308 307 307 307 307 307 307 307 308 308 309 309 309 310 310 311 311 311 311 311 311 311 312 312 312 313 314 315 317 319 320 322 323 324 325 326 326 325 325 324 323 320 317 316 320 326 328 325 323 324 327 328 328 328 328 329 331 331 329 326 323
315 314 314 314 314 314 313 313 312 311 310 310 310 309 309 309 309 309 309 308 308 307 307 306 305 305 304 304 304 304 304 304 304 304 305 305 305 305 306 306 307 307 307 308 308 309 309 309 309 309 310 310 311 312 313 314 315 316 317 317 317 317 318 317 316 314 312 311 312 319 326 327 325 322 322 322 323 326 329 328 330 331 330 330 329
315 314 313 314 314 314 313 313 311 311 310 310 310 309 309 309 308 308 308 307 306 305 304 304 304 304 304 303 304 303 304 304 304 304 304 304 304 304 304 304 304 304 304 304 304 305 305 305 305 305 306 306 307 307 307 308 308 309 310 310 310 311 311 311 310 309 309 308 308 312 318 324 326 324 321 321 321 325 328 326 326 327 326 327 328
316 314 314 314 314 314 313 313 312 311 310 310 309 309 309 308 308 307 306 305 304 304 304 304 304 304 304 304 304 303 303 303 304 304 304 304 304 304 304 304 303 303 303 303 303 303 303 303 303 303 303 303 303 303 304 304 304 304 305 305 306 306 307 307 307 307 307 307 308 310 314 318 323 325 323 322 322 323 324 321 321 321 321 321 324
317 314 314 314 314 314 313 313 312 311 310 310 309 309 308 308 308 307 305 304 304 304 304 304 304 304 304 304 304 303 303 303 304 303 304 304 303 304 303 303 303 303 303 303 303 302 302 302 302 302 302 302 302 303 303 303 303 303 303 303 303 303 304 304 304 305 306 306 308 311 314 318 322 325 325 324 325 325 322 320 319 318 317 317 318
317 314 313 314 314 314 313 313 312 311 310 309 309 309 308 308 307 306 304 304 304 304 304 305 304 304 304 304 304 304 304 303 303 303 303 303 303 303 303 303 303 303 303 303 303 302 302 302 302 302 302 302 302 302 302 302 302 302 303 303 303 303 303 303 303 303 304 305 307 310 314 320 323 326 326 326 327 327 323 322 322 320 318 317 316
317 315 313 314 314 314 313 312 312 311 310 310 309 308 308 308 307 306 304 304 304 304 304 305 305 305 305 305 304 304 304 304 303 303 303 303 303 303 303 303 303 302 302 302 302 302 302 302 302 302 302 302 302 302 302 302 302 302 302 303 303 303 303 303 303 303 303 303 305 307 312 317 321 324 326 326 327 326 324 324 323 323 322 320 318
317 315 314 314 314 313 313 312 311 311 310 309 309 309 308 308 307 306 304 304 304 304 304 304 304 305 305 305 305 304 304 303 303 303 302 302 302 302 302 302 302 302 302 302 302 302 302 302 302 302 302 302 302 302 302 302 302 302 302 302 302 303 303 303 303 303 303 303 303 304 307 312 316 320 323 325 326 325 326 326 326 325 324 322 320
316 316 314 314 314 313 312 312 311 311 310 309 309 308 308 308 307 306 304 303 303 304 304 304 304 304 304 305 304 304 304 303 302 302 302 302 302 302 302 302 302 302 302 302 302 302 302 302 302 302 302 302 302 302 302 302 302 302 302 302 302 302 302 303 303 303 303 303 303 303 303 307 311 316 321 323 324 324 326 326 327 327 325 323 320
314 315 315 314 314 313 312 312 311 311 310 309 309 308 308 308 307 306 304 303 303 303 303 304 304 304 305 305 304 304 303 303 302 302 302 301 301 301 301 301 302 302 302 302 302 302 301 302 301 301 301 301 301 301 301 301 301 301 301 301 301 302 302 302 302 302 303 303 303 302 302 304 308 314 319 322 320 320 322 323 323 323 322 321 319
314 314 314 314 314 313 313 312 312 311 310 309 309 309 308 307 307 306 304 303 303 303 303 304 304 304 304 304 304 304 303 303 303 302 302 302 302 302 302 302 302 302 302 303 303 303 303 302 302 302 302 301 301 301 301 301 301 301 301 301 301 301 301 301 302 302 302 302 302 302 302 302 304 307 311 314 313 310 311 313 312 311 312 315 315
314 314 314 314 314 313 313 312 312 311 311 310 309 309 308 308 307 306 305 304 303 303 304 304 304 304 304 305 304 304 304 304 304 304 303 303 303 302 302 302 302 303 303 304 304 304 304 303 303 303 302 302 301 301 301 300 301 301 301 301 301 301 301 301 301 301 301 301 301 302 302 302 302 302 302 304 304 303 303 304 304 303 305 308 309
314 314 314 314 314 313 313 312 311 311 311 310 309 309 308 308 307 307 306 304 304 304 304 304 304 304 304 305 305 304 304 305 305 304 304 304 303 303 302 303 303 303 304 304 305 305 304 304 304 303 303 302 302 301 300 300 300 300 300 300 300 300 300 300 300 300 301 301 301 301 301 302 301 302 302 301 301 301 301 302 302 303 303 303 304
313 314 313 314 313 313 312 311 311 311 311 310 309 309 308 308 307 307 306 305 304 304 304 304 304 304 304 305 305 304 304 304 305 305 304 304 304 303 303 303 303 304 305 304 305 304 304 304 304 304 304 303 302 301 301 300 300 300 300 300 300 300 300 300 300 300 300 300 300 301 301 301 301 301 301 301 301 301 301 301 302 302 303 303 303
314 313 313 313 313 313 312 311 311 311 311 310 309 309 308 308 307 307 307 305 304 303 303 304 304 303 303 304 304 303 304 304 304 304 304 304 304 303 303 303 304 304 304 304 304 304 304 304 304 304 304 303 303 302 301 300 300 300 300 300 300 300 300 300 300 300 300 300 300 300 300 300 300 300 300 301 301 301 301 301 301 302 302 302 303
314 313 313 313 313 313 312 311 311 311 311 310 310 309 308 308 308 307 307 306 304 303 303 303 303 303 303 304 304 303 303 304 304 304 304 304 304 303 304 304 304 304 304 304 304 304 304 304 304 304 304 304 303 302 301 300 300 299 299 299 299 299 299 299 299 300 300 300 300 300 300 300 299 300 300 300 300 300 301 301 301 301 301 302 302
313 313 313 313 313 313 312 312 311 311 311 310 310 309 309 308 307 307 307 306 304 302 303 303 303 303 303 304 304 303 303 303 304 304 304 304 304 304 304 304 304 303 304 304 304 304 304 304 304 304 304 303 303 301 300 300 299 299 299 298 298 298 298 299 299 299 299 299 299 300 300 300 299 299 299 299 300 300 300 300 301 301 301 301 302
314 313 313 312 312 312 312 312 312 311 311 310 309 309 309 308 308 307 307 306 303 302 302 302 302 302 303 304 304 303 303 303 303 303 303 303 303 303 303 303 303 303 303 303 303 304 304 304 304 304 304 303 302 301 300 299 299 298 298 298 298 298 298 298 298 298 298 298 299 299 299 299 299 300 299 299 299 300 300 300 300 301 301 301 302
314 313 313 312 312 312 312 312 312 312 311 310 310 309 309 308 308 307 307 306 304 302 302 302 302 302 302 303 304 303 303 303 303 303 303 303 303 303 303 303 303 303 303 303 303 303 303 303 303 303 303 302 301 300 299 298 298 298 298 298 298 298 298 298 298 298 298 298 298 298 298 299 299 300 300 300 300 299 300 300 300 300 301 301 301
313 313 313 312 312 312 312 312 312 312 311 310 310 309 309 308 308 307 307 306 305 303 302 301 302 302 302 303 303 303 303 302 302 302 302 302 302 302 302 302 302 302 302 303 303 303 303 303 303 302 302 302 301 300 299 298 298 298 298 298 298 298 298 298 298 298 298 298 298 298 298 298 299 299 299 300 300 300 300 300 300 300 300 301 301
313 313 313 312 312 312 311 312 312 312 311 311 310 309 309 308 308 307 306 306 305 304 302 301 301 302 302 302 303 303 302 302 302 302 302 302 302 302 302 302 302 302 302 302 302 302 302 302 302 302 302 302 301 300 299 298 297 297 297 298 298 298 298 298 298 298 298 298 298 298 298 298 298 299 299 299 299 300 300 300 300 300 300 300 301
313 313 313 313 312 312 311 311 311 311 311 310 310 309 309 308 308 307 306 306 306 305 303 302 302 302 302 302 302 302 302 301 302 302 302 302 302 302 302 302 302 302 302 302 302 302 302 302 302 302 302 301 301 299 298 297 297 296 296 297 297 297 297 297 297 298 298 298 298 298 298 298 298 299 299 299 299 299 300 300 300 300 300 300 300
313 314 313 313 312 312 312 311 311 311 310 310 310 309 309 308 307 306 306 306 306 306 304 303 303 302 301 301 301 301 301 301 301 301 302 302 302 302 301 301 301 301 301 301 301 302 302 301 301 301 301 301 300 298 297 296 296 296 296 296 296 296 296 296 297 297 298 298 297 297 298 298 298 299 299 299 299 299 299 299 299 300 300 300 300
314 314 313 312 312 312 311 311 311 310 310 310 310 309 309 308 307 306 305 305 305 305 305 305 304 302 301 301 301 301 301 301 301 301 301 301 301 301 301 301 301 301 301 301 301 301 301 300 300 300 300 300 299 298 296 296 296 295 295 296 296 296 296 296 297 297 297 297 297 297 298 298 298 299 299 299 299 298 298 298 299 299 299 300 300
314 313 312 312 312 312 311 311 310 310 310 309 309 309 308 308 307 306 305 305 305 305 305 305 305 302 301 301 301 301 301 300 301 301 301 301 301 301 301 301 300 300 300 300 301 300 300 300 300 300 300 300 299 297 297 296 295 295 295 295 295 296 296 296 297 297 297 298 297 298 298 298 298 299 298 298 298 298 298 298 299 299 299 299 299
313 312 313 313 312 312 311 310 310 309 309 309 308 308 308 308 307 306 305 305 304 305 305 305 305 302 300 300 300 300 300 300 300 301 301 301 301 301 300 300 300 300 300 300 300 300 300 300 300 300 299 299 298 296 296 296 296 295 295 295 295 296 296 296 297 297 298 298 298 298 298 298 298 298 298 298 298 297 298 298 298 298 299 299 299
314 313 312 312 311 311 311 310 310 309 309 308 307 308 308 307 307 306 305 305 304 304 305 305 304 302 300 300 300 300 300 300 300 300 300 300 300 300 300 300 300 300 300 300 300 299 299 299 299 299 299 298 298 296 296 296 295 295 295 295 295 296 296 297 297 297 297 298 298 298 298 298 298 298 298 297 297 297 297 297 298 298 298 298 298
314 313 312 312 311 311 310 310 309 309 308 307 306 307 307 306 306 306 305 304 304 304 304 304 304 302 300 300 300 300 300 300 300 300 300 300 300 300 300 300 299 299 299 299 299 299 299 299 299 298 298 298 297 296 296 296 296 295 295 295 296 296 296 296 297 297 297 298 298 298 297 297 297 297 297 296 296 296 296 296 296 296 297 297 298
313 313 312 311 311 311 310 310 309 308 307 307 306 306 306 306 305 305 304 304 303 303 304 304 304 302 300 299 299 299 299 299 299 300 300 300 300 300 299 299 299 299 299 299 299 299 299 299 298 297 297 296 296 295 295 296 295 295 296 296 296 295 296 296 296 297 297 298 298 297 297 297 297 297 296 296 296 295 295 294 295 295 295 296 296
313 312 312 311 310 310 309 309 308 307 307 306 306 305 305 305 304 304 303 303 303 303 303 303 303 302 300 299 299 299 299 299 299 299 299 299 299 299 299 299 299 299 299 299 298 298 298 298 298 297 296 295 294 294 294 295 295 295 295 295 296 296 296 296 296 297 297 297 297 296 296 297 296 295 295 295 295 294 294 293 293 293 293 294 295
313 312 312 311 310 310 309 308 308 307 307 306 305 304 304 304 304 303 303 303 303 302 303 303 303 302 300 299 298 298 299 299 299 299 299 299 299 299 299 299 298 299 298 298 298 298 298 298 298 297 297 296 294 293 293 294 294 294 295 296 296 296 296 296 296 296 296 296 295 295 296 295 295 294 294 294 294 294 293 293 292 292 292 293 293
312 312 311 311 310 310 309 309 308 307 307 306 306 305 305 305 304 305 305 304 304 303 303 302 302 302 300 299 298 298 298 298 298 298 298 298 299 298 299 298 298 298 298 298 298 298 298 298 297 297 297 297 295 293 292 293 294 294 295 297 297 296 296 296 295 295 295 294 294 295 295 294 294 294 293 293 293 293 293 292 292 292 292 292 293
312 312 311 310 310 309 309 309 308 308 307 307 306 306 306 306 306 306 306 305 305 304 304 303 303 301 300 298 298 298 298 298 298 298 298 298 298 298 298 298 298 298 298 298 298 298 298 297 297 297 296 296 295 293 292 292 292 292 293 296 297 297 297 295 294 294 294 294 295 294 294 294 294 294 293 294 294 294 293 292 292 292 292 291 292
312 312 311 310 310 309 309 308 308 308 307 307 307 306 306 306 306 306 306 305 305 304 303 302 301 301 299 298 298 298 298 298 298 298 298 298 298 298 298 298 298 297 297 297 298 297 297 297 297 297 296 295 294 293 292 291 291 291 291 292 293 295 296 295 294 295 295 295 295 294 294 294 294 294 294 294 295 294 293 292 292 291 291 291 291
312 311 311 310 309 309 308 308 308 308 307 307 306 306 305 305 305 304 304 303 303 302 301 300 300 299 298 298 297 297 297 297 297 297 297 297 297 298 298 297 297 297 297 297 297 297 297 297 297 296 295 294 293 293 292 291 290 291 290 290 290 291 292 293 294 295 295 295 294 294 294 294 293 294 294 294 294 294 293 293 292 291 291 291 291
312 311 310 310 309 309 308 308 308 308 308 307 306 306 305 304 303 303 301 301 300 300 300 300 299 299 298 298 298 297 297 297 297 297 297 297 297 297 297 297 297 297 297 297 297 297 297 297 296 295 294 293 293 292 292 291 290 290 289 289 289 289 289 290 291 294 294 294 294 293 293 293 292 292 293 293 293 293 292 292 291 291 291 291 291
312 311 310 310 309 309 308 308 308 308 307 307 306 306 305 304 304 303 303 302 301 301 302 302 301 301 300 299 298 297 297 297 297 297 297 297 297 297 297 297 297 297 297 297 297 297 297 296 296 295 293 292 292 292 291 291 290 290 289 289 288 288 288 288 288 290 291 292 293 293 293 292 291 291 292 293 292 292 292 291 291 291 291 291 291
312 311 310 309 309 308 308 308 307 307 307 307 306 305 305 305 305 304 304 304 304 304 304 303 302 301 300 300 299 298 297 297 296 296 296 296 296 297 297 296 296 296 296 296 296 296 296 296 296 295 293 292 291 291 291 291 290 290 289 289 288 288 287 287 287 287 288 289 290 291 292 291 291 292 292 292 292 291 291 291 290 290 290 291 291
312 310 310 309 309 308 308 307 307 307 307 307 306 306 306 306 305 305 304 304 305 304 304 303 302 301 300 299 298 297 297 296 296 296 296 296 296 296 296 296 296 296 296 296 296 296 296 296 295 294 293 291 291 290 290 290 290 290 289 289 288 288 287 287 287 286 286 286 288 289 290 290 290 292 292 292 291 291 290 290 290 290 290 290 290
311 310 310 309 308 308 307 307 307 307 307 307 307 306 306 306 306 305 305 305 304 303 302 302 301 300 299 298 297 297 297 296 296 296 296 296 296 296 296 296 296 296 296 296 296 296 296 296 295 294 293 291 290 290 290 289 289 289 289 289 288 288 288 288 287 287 286 286 287 288 288 289 289 290 292 292 291 291 290 290 290 290 290 290 290
310 310 309 309 308 308 307 307 307 307 307 307 306 306 306 306 306 306 306 305 304 302 301 300 300 299 299 298 297 297 296 296 296 296 295 295 295 295 295 295 295 295 295 296 295 296 296 295 295 294 292 291 290 290 289 289 289 288 288 288 288 288 288 288 288 287 287 287 287 287 288 288 288 288 290 291 290 290 290 290 290 290 290 290 290
310 309 309 308 308 307 307 307 307 307 307 307 307 306 306 306 307 307 306 306 304 303 302 301 300 299 298 298 297 296 296 296 296 295 295 295 295 295 295 295 295 295 295 295 295 295 295 295 295 294 292 290 290 289 289 289 288 288 288 287 287 287 287 288 287 287 287 287 287 288 288 289 288 288 289 289 289 289 290 290 290 290 290 290 290
Wind_Speed
18 18 16 14 13 13 11 10 10 10 10 9 9 7 6 5 4 3 3 2 2 1 1 2 3 3 2 3 3 3 3 2 2 2 2 2 2 3 4 4 5 5 5 5 5 5 6 6 6 7 8 8 7 6 6 6 6 6 6 6 7 8 8 9 9 10 10 10 10 9 7 5 6 7 7 6 6 6 6 6 6 5 5 5 5
18 19 17 16 14 12 11 10 10 11 11 10 10 8 7 6 5 5 4 4 4 3 3 3 3 3 3 3 2 2 3 2 2 1 2 3 3 3 4 5 5 5 5 5 5 6 6 6 7 7 7 8 9 9 7 6 6 7 6 6 6 7 8 9 10 10 10 10 10 10 8 6 4 5 6 5 5 7 6 5 6 7 6 5 5
18 18 18 17 14 11 10 9 10 10 10 10 9 7 6 6 5 5 5 5 5 5 3 3 3 3 2 2 2 2 2 2 2 2 3 3 4 4 5 6 6 6 6 6 6 6 5 5 7 7 8 8 9 10 9 8 7 6 6 6 6 6 7 8 9 10 10 10 9 9 8 6 4 4 4 5 5 7 7 5 6 7 7 6 6
18 18 18 17 14 12 10 9 8 8 8 8 7 6 6 6 4 5 5 4 3 2 2 2 1 1 2 2 2 3 3 4 3 4 5 5 5 5 5 6 6 5 5 6 6 6 6 6 7 7 8 9 9 10 11 11 9 7 5 6 7 8 9 9 9 9 10 10 9 9 7 6 4 3 5 6 6 7 8 6 6 7 7 7 6
19 20 19 16 14 11 9 8 7 7 6 6 5 5 4 4 4 4 5 6 6 5 6 6 5 5 5 4 4 5 5 5 6 6 7 7 7 6 6 6 6 6 6 6 6 6 6 6 6 6 7 8 9 9 10 10 10 9 7 7 8 9 10 10 10 11 10 9 9 8 8 7 6 5 6 8 7 7 9 8 6 6 8 8 7
19 19 19 16 14 11 10 7 7 6 6 6 5 4 3 3 3 3 3 4 4 4 5 5 5 4 4 4 5 6 6 7 7 8 8 8 8 8 8 7 7 8 8 7 6 6 6 6 6 6 8 9 9 10 10 9 10 11 10 10 9 9 9 10 10 11 11 10 9 8 8 8 7 7 8 10 9 8 8 8 9 9 9 10 9
18 18 18 16 14 12 10 8 7 6 5 4 3 3 3 2 2 2 2 2 2 2 2 2 1 1 2 3 4 5 6 7 8 8 9 9 9 10 10 9 9 9 9 8 8 9 9 9 9 10 11 11 11 11 10 10 10 11 12 12 12 11 10 10 10 10 10 10 9 8 7 7 7 7 8 10 10 8 7 7 9 10 10 11 11
16 17 17 16 14 12 10 8 7 6 4 3 3 3 3 4 4 4 3 3 3 3 2 2 2 1 1 0 1 2 3 4 6 6 7 8 9 9 10 10 10 10 10 10 10 10 11 11 11 11 11 11 12 12 12 12 12 13 13 14 14 13 12 11 10 9 9 9 8 7 6 6 6 7 8 9 8 9 10 10 9 10 10 11 12
16 16 16 15 13 12 10 9 7 5 4 4 5 5 6 6 6 6 5 5 4 4 3 3 2 2 1 0 1 2 2 3 4 5 5 6 7 7 8 8 9 9 9 10 10 11 11 11 12 12 12 13 13 14 14 14 14 15 15 15 15 15 15 14 12 11 10 9 8 7 6 5 5 7 8 9 9 12 14 13 10 9 10 9 10
17 17 16 15 13 12 10 9 8 6 6 7 7 7 7 7 7 6 6 5 4 3 3 3 2 2 1 1 1 2 3 3 4 5 5 6 6 7 7 7 8 8 9 9 9 10 10 10 11 11 12 13 14 14 15 15 16 16 17 17 17 17 17 16 15 14 13 11 9 8 8 6 5 6 8 9 11 12 14 14 12 10 11 10 9
18 17 16 15 15 13 12 11 9 7 8 9 9 9 8 7 7 6 5 4 4 3 3 2 2 2 1 1 1 1 2 3 4 4 5 5 5 6 7 7 8 8 9 9 9 10 10 10 10 10 11 11 12 13 14 15 16 16 17 18 18 18 18 18 18 17 15 13 11 9 9 8 7 6 7 9 10 11 12 13 13 13 13 13 12
18 18 18 16 16 14 14 12 10 9 9 10 9 9 9 8 7 5 5 4 4 3 3 3 2 2 1 1 1 1 2 3 3 4 4 4 5 5 5 6 6 7 7 7 8 8 8 9 9 9 10 11 11 12 13 13 14 15 16 17 17 18 18 18 18 17 16 15 13 11 10 9 8 8 7 8 9 10 11 13 14 14 15 15 14
19 19 19 18 17 16 16 14 12 11 10 10 10 9 8 7 6 5 4 4 4 3 3 3 3 2 2 2 2 2 2 3 3 3 4 4 4 4 4 4 4 4 4 4 4 5 5 5 5 6 6 7 8 9 9 10 11 12 12 13 15 16 16 17 17 16 15 15 14 12 11 10 9 9 9 8 9 10 12 14 15 15 16 16 15
19 19 20 19 19 18 17 15 13 11 11 10 9 9 7 7 6 5 5 4 4 4 4 3 3 3 3 3 3 3 4 4 4 4 4 4 3 3 3 3 3 3 3 3 4 4 4 5 5 5 5 5 5 6 6 7 7 8 8 9 10 11 12 13 14 14 14 13 13 12 12 11 10 9 10 10 9 11 12 13 14 15 16 16 16
19 20 20 20 20 19 18 16 14 12 11 10 9 8 7 6 6 6 5 5 5 4 4 4 3 3 4 4 4 4 4 4 4 4 3 3 3 3 3 3 3 3 4 4 5 5 5 6 6 6 7 7 7 7 7 7 7 7 7 7 7 8 8 8 9 10 11 12 11 11 11 11 10 9 10 10 10 12 13 14 15 15 16 16 17
20 21 22 22 21 20 18 16 14 12 11 10 9 8 7 7 6 6 6 5 5 5 4 3 2 3 4 4 5 5 5 4 4 4 3 3 2 3 3 3 3 4 4 4 5 5 6 6 7 7 7 8 8 9 9 9 8 8 8 8 8 8 9 8 7 7 8 9 10 10 10 10 10 9 9 11 12 14 14 15 16 15 15 15 16
20 22 23 22 22 20 19 17 15 13 12 12 11 10 9 8 7 7 7 6 6 6 5 3 2 2 3 4 4 5 5 4 4 3 3 2 2 2 2 3 4 4 5 5 5 6 6 6 7 7 7 8 8 9 9 9 9 9 10 9 9 9 9 9 8 7 6 6 8 9 10 11 11 11 10 10 11 12 13 14 14 14 15 15 15
19 22 23 23 22 21 20 18 17 15 14 14 13 12 10 9 8 8 7 7 7 6 5 3 1 2 3 4 4 4 4 4 4 3 3 3 3 3 4 4 5 5 6 6 7 7 8 8 8 8 8 9 9 9 9 10 10 10 10 10 9 9 9 9 8 7 6 5 5 6 8 10 12 12 11 10 10 9 11 13 14 15 16 16 18
20 22 23 24 23 22 21 20 18 17 17 16 15 13 12 11 9 8 8 7 7 6 5 3 1 3 4 5 5 5 5 4 4 4 4 4 4 4 5 5 6 6 7 8 9 10 10 11 11 11 11 11 11 10 10 10 10 10 10 9 9 8 8 7 7 6 5 5 4 4 6 8 10 12 12 13 14 13 14 15 16 17 17 18 20
21 23 24 25 25 24 23 22 21 19 19 19 17 15 14 12 10 9 8 8 7 7 6 4 4 4 5 5 6 6 6 6 5 5 5 5 5 6 7 7 8 8 9 10 11 11 12 12 12 12 12 12 11 11 11 10 10 10 10 9 9 8 8 7 7 6 6 5 5 4 5 6 8 11 13 16 18 18 17 18 20 20 20 21 22
23 24 25 26 27 26 26 24 23 22 22 21 19 17 16 14 13 11 10 9 9 9 8 7 6 5 5 5 6 7 6 7 7 7 8 8 8 8 9 9 9 9 10 10 11 11 12 12 13 13 13 13 12 12 12 12 11 11 11 10 10 10 9 9 8 7 7 6 5 5 5 5 6 8 11 13 15 16 16 16 18 19 19 21 22
24 25 26 27 27 28 27 27 26 25 24 23 22 19 18 16 15 13 12 11 11 11 11 9 8 7 7 7 7 8 8 7 7 8 8 9 9 9 8 8 9 9 9 10 10 11 11 12 13 13 13 14 13 13 12 12 12 12 11 11 11 11 11 10 10 9 8 8 7 7 7 7 7 7 8 9 10 12 12 12 12 14 15 16 18
25 25 26 26 27 28 29 28 28 27 26 25 24 22 20 19 17 15 15 14 13 13 13 12 10 9 8 8 8 9 9 8 8 8 8 8 8 8 8 8 8 8 9 9 10 11 12 12 13 14 14 14 14 14 13 13 12 12 11 11 11 11 10 10 10 10 10 10 10 10 9 9 9 9 9 9 10 10 11 11 10 10 11 12 13
24 24 25 27 28 28 29 29 29 28 27 26 25 24 23 21 19 18 17 16 15 15 15 14 12 10 9 9 9 9 10 9 9 8 8 8 8 8 8 8 8 8 9 10 11 11 12 13 13 14 15 15 15 15 14 13 12 12 12 11 11 11 11 11 10 10 10 10 11 11 11 11 11 11 10 11 11 11 11 11 11 11 11 10 11
23 25 27 28 28 28 29 30 30 30 28 27 27 26 25 23 21 20 19 18 17 17 16 16 14 12 11 11 10 10 11 11 10 9 9 9 8 9 9 9 9 10 10 11 11 12 12 13 13 14 15 15 15 15 14 14 13 12 12 12 12 12 12 12 11 11 11 11 11 11 11 11 12 12 12 12 12 12 12 12 12 12 12 11 11
26 27 28 28 28 28 29 30 31 30 29 29 28 28 27 25 23 22 20 19 19 18 18 17 16 14 13 12 12 12 12 12 11 11 10 10 10 10 10 11 11 12 12 12 13 13 13 14 14 14 15 15 15 15 15 14 14 13 12 12 12 13 13 12 12 12 12 11 11 11 11 11 11 11 12 12 13 13 14 14 14 13 13 13 12
29 29 29 29 29 30 30 31 31 31 30 30 30 29 29 27 25 23 22 21 20 20 20 19 18 16 15 14 13 13 13 13 13 12 12 12 12 11 12 12 13 13 13 13 14 14 14 14 14 15 15 15 15 15 15 14 14 14 13 12 12 13 13 13 12 12 12 12 11 11 11 12 12 12 11 12 12 13 14 14 15 15 15 14 14
30 30 30 31 31 31 31 32 32 32 31 31 32 31 30 29 27 25 24 22 22 22 21 20 19 18 17 15 14 14 15 15 14 13 13 13 13 13 13 13 13 13 13 14 14 14 14 15 15 15 15 15 15 14 14 14 14 13 13 12 12 12 12 12 12 12 12 11 11 11 11 12 12 12 12 12 12 12 13 14 15 15 16 16 16
32 31 31 31 31 31 32 32 32 32 32 33 33 32 32 31 30 28 25 24 24 23 22 21 21 19 18 17 16 16 16 16 15 14 14 14 14 13 13 13 13 13 13 13 13 14 14 15 15 15 16 16 15 15 14 13 13 13 13 13 12 12 12 12 12 12 12 11 11 10 11 11 12 12 12 12 12 12 13 13 14 15 15 16 16
34 33 32 32 31 32 32 32 32 32 33 34 34 33 33 32 31 30 27 26 25 24 24 23 22 21 19 18 17 17 18 17 16 15 15 15 14 14 13 13 13 13 13 13 13 14 15 16 16 16 16 16 16 16 15 14 13 13 13 13 13 13 13 13 13 13 12 12 11 11 10 11 11 12 12 12 12 12 12 13 14 14 14 14 14
36 35 34 33 33 33 32 32 32 31 33 34 35 34 34 33 31 30 29 27 27 26 25 24 23 22 20 19 18 18 19 18 17 16 16 15 15 14 14 13 13 12 12 13 13 15 16 16 16 16 17 17 17 17 16 15 14 14 13 13 14 13 14 14 14 14 13 13 13 13 12 12 12 12 12 12 12 12 12 13 14 14 14 13 13
38 37 36 35 34 34 33 33 32 32 33 34 35 36 35 33 32 31 30 29 28 27 26 25 24 22 22 21 20 20 20 19 18 17 17 16 16 15 14 13 13 12 12 13 14 15 16 16 16 16 16 17 17 17 17 16 15 15 14 14 14 14 14 14 14 15 15 14 14 14 14 13 12 12 12 11 11 10 11 12 13 14 15 14 14
39 38 37 37 35 35 35 35 34 33 33 33 34 35 36 34 33 32 31 30 28 28 27 26 24 23 23 22 21 21 21 21 19 18 18 17 17 16 14 13 13 12 12 13 14 15 16 15 15 15 15 16 16 16 16 16 15 15 15 15 15 15 15 15 15 16 16 15 15 15 14 13 12 11 9 8 8 8 9 10 11 13 14 15 15
39 39 39 38 36 36 36 36 36 35 34 33 33 35 36 35 34 33 32 31 29 28 27 26 25 24 24 23 23 22 22 22 20 19 18 18 17 16 15 14 13 12 12 13 14 15 16 16 15 15 15 16 16 16 16 16 16 16 16 16 16 15 16 15 15 16 16 16 15 15 13 12 11 9 7 6 7 9 11 11 11 12 13 14 14
40 40 40 39 37 37 38 38 37 36 35 34 33 34 36 36 34 34 33 32 30 29 28 26 25 25 25 25 24 24 23 23 21 20 19 18 18 17 16 14 13 13 12 13 14 16 17 17 16 16 16 16 15 16 17 17 17 18 17 17 17 16 16 16 15 16 16 16 16 14 12 10 8 8 9 11 13 13 13 12 11 11 12 12 13
41 41 40 40 39 39 38 39 38 37 36 34 33 33 35 36 35 35 33 32 32 30 29 27 26 26 26 26 26 25 25 24 22 21 20 19 19 17 16 15 13 12 12 14 15 16 17 17 17 16 16 16 16 16 17 18 19 19 19 19 18 18 18 17 16 16 16 17 15 13 10 9 10 12 15 17 17 15 14 14 13 13 13 13 14
41 41 42 41 40 40 40 40 39 38 36 35 34 34 34 35 36 35 34 33 33 31 30 28 27 27 27 27 27 27 26 25 23 22 21 20 19 18 17 15 13 12 13 14 15 16 18 18 17 16 16 16 16 17 18 20 20 21 21 20 20 20 19 18 17 17 16 15 13 12 12 14 16 18 19 20 19 19 19 19 18 17 17 17 17
40 41 42 41 41 41 40 40 40 39 37 35 34 33 34 35 36 35 34 33 33 32 31 29 28 28 28 29 28 28 27 26 24 23 22 21 20 18 17 15 13 13 13 15 15 17 18 17 17 16 16 16 17 18 20 21 22 23 22 21 21 21 20 19 18 17 16 13 12 15 18 20 20 19 20 22 23 23 23 22 21 21 20 20 20
40 41 41 41 42 42 42 41 40 39 37 36 34 34 34 35 36 36 35 35 34 34 32 31 30 29 30 30 30 29 28 27 25 24 23 22 21 19 18 15 14 14 14 15 16 17 17 17 16 16 15 16 16 18 21 22 24 24 24 23 23 22 20 20 19 17 13 12 15 21 23 20 19 20 23 24 25 25 25 24 23 22 22 22 22
40 40 41 42 43 43 43 42 41 40 38 37 36 36 37 37 38 38 37 37 36 35 34 33 31 30 31 31 31 30 29 28 26 25 24 23 22 20 19 17 15 15 15 15 16 17 17 17 17 16 15 15 15 17 20 23 25 26 26 24 23 23 21 21 19 14 12 15 23 25 21 18 20 23 24 24 25 25 24 24 23 23 24 23 21
40 41 42 43 44 44 44 44 42 41 40 39 39 39 39 38 39 39 39 38 37 37 36 34 33 32 32 32 32 31 30 28 27 26 25 24 23 22 20 18 16 15 15 15 16 17 18 18 17 17 16 15 15 17 20 23 26 28 29 27 25 23 22 21 17 13 17 25 27 22 18 21 24 23 23 24 25 25 25 25 25 25 25 24 22
40 42 43 43 44 44 44 43 41 41 41 40 40 39 38 38 37 37 37 37 37 37 36 35 33 32 33 33 33 32 31 29 28 27 26 25 24 23 21 19 17 16 15 15 17 18 18 18 18 17 16 15 14 17 20 23 25 29 32 33 31 27 23 20 17 18 26 29 22 18 22 26 26 24 24 26 27 28 29 29 29 29 29 27 27
39 41 42 42 43 44 44 43 42 42 41 40 39 38 37 37 36 35 35 35 36 36 35 34 33 33 34 34 34 33 31 29 28 27 26 26 26 24 22 20 18 17 16 16 17 18 18 18 18 18 16 15 14 15 18 21 24 26 28 29 32 32 29 25 25 27 28 24 20 24 30 29 27 27 28 29 29 31 32 33 33 33 33 32 32
39 41 42 42 43 43 43 42 42 41 40 40 39 37 37 36 37 36 35 34 34 34 34 34 35 35 35 35 35 33 32 30 29 28 28 27 27 25 23 21 19 17 16 16 17 18 18 18 19 18 16 15 15 15 16 18 22 24 24 23 23 24 24 29 37 34 25 24 28 31 31 30 31 31 31 31 32 33 35 35 36 35 35 35 34
39 41 42 41 42 42 42 42 41 40 40 39 38 38 38 38 38 38 38 37 36 35 36 37 38 37 37 36 35 34 33 32 31 30 29 29 28 27 24 21 19 18 16 16 17 17 18 19 19 18 17 16 15 16 17 18 20 21 21 18 14 13 18 30 38 34 28 31 34 33 33 35 35 34 34 34 34 36 37 37 37 37 37 36 35
38 40 40 39 40 40 40 40 39 39 39 39 39 39 39 40 40 41 41 41 41 41 41 41 40 39 38 37 36 35 34 33 32 30 30 30 29 28 25 22 20 18 17 16 17 18 18 19 19 18 17 17 17 17 17 18 19 19 18 16 12 13 21 26 27 30 36 37 35 35 36 37 37 36 36 36 37 38 38 39 40 39 38 38 37
37 37 37 37 38 38 38 38 38 38 39 39 40 40 40 41 41 42 42 43 43 43 42 40 39 38 37 36 36 36 35 34 32 31 31 31 30 29 26 24 21 19 17 17 17 18 18 20 19 18 17 18 18 19 19 19 19 18 17 16 15 14 18 20 21 27 35 37 37 38 38 37 38 39 39 39 40 40 40 41 41 42 41 39 38
35 35 36 36 37 37 37 37 37 37 38 39 39 40 40 40 40 41 42 43 43 42 40 38 37 37 37 36 37 37 36 35 34 33 33 32 31 30 27 25 22 20 18 17 18 18 19 20 20 18 18 18 20 20 21 21 20 19 17 17 17 16 16 17 19 21 27 36 40 38 36 39 40 40 41 41 41 42 42 43 43 44 43 41 40
33 33 33 34 35 35 35 36 37 37 37 38 39 39 38 38 38 39 39 40 41 41 40 38 37 37 37 37 38 38 37 36 34 34 34 33 32 30 28 25 23 20 19 18 18 18 19 20 19 18 18 19 20 22 22 23 21 19 18 17 17 17 18 18 19 20 23 32 39 38 39 44 45 43 43 43 43 43 43 44 45 44 43 42 40
31 31 32 33 34 35 36 37 37 37 37 37 38 38 37 37 36 36 36 37 39 40 40 40 39 39 38 39 39 39 38 36 35 34 34 34 33 31 29 26 23 21 20 19 18 18 19 20 20 19 19 19 20 22 23 22 20 18 17 17 17 17 19 20 20 21 23 27 36 42 44 47 49 49 46 45 45 45 45 44 44 44 43 42 40
30 31 33 34 35 35 36 37 37 37 37 37 38 37 36 35 35 35 35 35 37 39 40 41 41 41 41 41 40 40 38 37 36 35 35 35 34 32 29 26 23 21 20 19 18 19 20 20 20 19 19 20 21 22 23 21 19 18 16 15 16 16 18 20 20 22 24 27 34 44 47 47 51 52 49 48 49 47 46 45 44 43 42 42 41
Wind_Direction
188 188 191 194 196 195 189 176 170 164 154 152 145 142 142 144 141 145 162 170 166 141 113 76 88 81 64 73 54 50 69 69 56 50 53 47 34 13 0 2 357 353 344 342 344 342 341 340 341 339 339 346 356 2 13 12 11 14 14 11 6 5 5 3 1 0 1 1 3 4 353 328 304 294 296 315 332 335 352 2 0 1 337 322 328
184 184 191 196 200 200 196 187 180 173 163 157 150 147 145 142 124 123 125 125 130 117 107 91 89 80 72 71 45 49 71 72 59 33 42 36 15 348 339 347 342 335 326 324 325 326 324 327 328 327 329 335 346 353 7 10 5 5 4 6 6 8 8 9 6 5 4 4 7 10 6 352 323 298 290 294 310 312 326 345 352 3 354 330 310
183 187 193 197 205 204 198 192 189 183 178 173 168 172 172 169 149 143 141 132 126 116 113 99 84 61 50 38 27 29 26 17 22 12 6 1 2 352 343 344 341 333 327 329 325 323 324 327 325 325 329 332 339 342 350 355 359 1 359 1 10 16 13 13 9 4 1 2 5 10 9 358 341 306 280 271 285 303 317 334 342 352 355 340 311
185 190 193 199 205 203 196 190 192 191 191 192 193 196 195 199 192 186 186 186 177 172 206 223 241 294 288 303 322 318 321 314 312 314 317 321 337 345 343 341 339 333 327 329 328 330 331 330 326 326 327 329 334 335 339 343 348 353 358 3 7 9 7 7 4 2 358 356 357 2 1 346 338 313 293 285 285 302 315 331 339 343 349 344 320
186 190 192 198 202 201 196 191 191 187 186 186 188 185 185 197 199 202 202 206 213 221 228 232 236 245 251 259 271 277 282 283 285 287 293 298 305 309 312 312 309 303 300 307 313 319 320 323 326 326 322 324 330 332 336 340 343 342 345 350 352 353 355 355 355 357 355 354 351 352 348 334 330 327 324 312 303 307 315 325 328 332 340 342 331
188 190 190 194 199 200 196 191 186 180 176 176 175 172 171 172 175 178 177 188 198 207 209 216 226 230 237 246 255 263 265 266 267 270 275 277 282 285 284 283 281 279 278 282 284 283 288 300 304 306 309 315 320 322 327 332 334 331 330 330 330 334 339 342 346 349 349 351 349 347 341 333 332 333 331 324 322 316 310 316 317 321 327 330 331
191 190 190 192 194 194 192 189 189 188 185 189 190 188 188 184 179 167 155 155 153 163 168 177 193 200 222 243 255 264 267 270 272 274 276 274 276 277 278 276 272 268 266 266 269 273 277 284 287 293 300 304 306 307 310 311 313 313 313 314 315 317 319 324 330 336 339 342 344 343 336 327 326 326 323 329 332 320 310 313 313 315 315 315 320
196 191 189 190 190 190 190 192 197 199 200 200 193 184 181 180 173 171 164 158 150 147 144 135 125 126 139 253 272 274 274 279 280 281 280 277 276 274 274 273 271 266 262 261 264 267 271 275 279 284 288 290 291 292 294 294 296 297 298 301 303 304 305 308 313 319 323 328 332 333 328 318 311 309 313 325 325 313 313 317 316 314 312 309 309
203 198 192 191 193 195 195 199 201 196 195 181 171 165 162 163 157 156 153 149 146 140 140 136 132 129 133 192 261 267 268 267 270 271 270 270 269 267 266 266 267 266 265 264 264 265 266 269 272 274 275 277 280 282 284 286 288 290 292 294 296 297 298 299 301 304 307 312 316 318 315 308 294 288 295 303 304 302 306 313 320 318 316 313 306
208 204 197 197 199 201 202 204 201 189 182 171 165 161 159 156 150 148 144 142 140 138 136 130 131 135 154 200 245 262 265 264 264 264 264 266 265 264 262 261 261 264 265 267 268 268 270 271 273 274 274 274 276 278 279 281 283 285 287 289 291 292 294 294 294 294 295 296 298 301 302 301 287 273 275 283 291 296 300 309 316 317 317 316 312
212 207 200 201 202 203 206 207 201 188 179 173 168 164 160 154 151 147 145 145 144 145 144 140 141 141 147 177 262 282 289 286 285 282 279 277 274 272 268 266 263 263 264 266 267 269 271 272 274 274 275 275 275 276 276 278 279 280 282 284 286 288 289 290 291 292 290 289 285 282 284 291 289 277 268 270 278 286 291 297 304 308 311 312 311
215 206 200 204 205 206 208 210 203 192 185 178 172 165 160 154 151 147 146 145 145 145 141 139 132 123 111 84 27 352 331 322 318 312 306 298 291 287 282 280 276 275 274 274 276 276 279 280 281 280 280 280 280 280 279 279 278 279 279 280 282 283 285 286 287 289 290 289 285 276 271 274 277 278 274 270 269 272 278 282 289 296 300 304 307
219 206 201 206 206 209 211 211 206 197 190 180 173 166 159 153 147 141 140 136 138 134 131 123 108 95 77 67 43 32 8 358 348 338 330 321 313 307 303 302 300 300 301 302 307 308 313 313 310 308 304 301 298 296 293 291 289 286 284 282 281 280 279 279 281 282 284 286 286 282 275 271 265 266 271 272 269 265 268 274 279 282 287 292 298
223 212 207 209 209 213 213 213 209 201 193 183 177 170 162 153 145 139 138 135 136 129 124 110 95 79 60 53 40 33 20 14 5 359 352 343 338 335 335 340 349 359 7 10 12 17 16 16 10 5 358 350 344 337 328 323 319 315 309 302 296 288 283 278 276 274 274 276 279 282 281 280 272 268 270 271 273 269 269 273 275 276 279 282 286
223 216 213 214 215 217 217 216 212 206 197 187 183 178 169 159 151 147 144 140 138 134 126 110 86 59 42 33 27 25 22 21 16 13 8 6 8 11 22 28 35 36 34 34 28 27 23 20 16 12 8 3 359 356 353 350 348 345 341 338 330 318 310 301 289 277 269 266 267 271 275 278 278 277 275 271 271 271 274 276 274 275 278 279 280
222 216 217 218 219 221 219 217 214 209 202 194 191 187 181 172 163 157 151 147 147 146 139 121 83 46 27 17 12 13 15 20 23 26 25 26 30 30 37 36 36 34 31 28 22 19 13 10 6 3 360 356 353 350 349 348 348 350 349 349 347 339 336 335 328 307 286 270 261 259 259 262 263 263 262 262 266 271 277 279 277 277 278 276 277
224 218 219 222 222 224 220 218 215 209 206 200 196 194 191 185 175 168 163 160 161 161 160 150 107 45 13 4 358 360 5 12 20 28 34 33 34 28 25 23 20 19 17 15 13 11 6 3 360 357 354 351 348 345 343 342 342 344 345 345 346 344 343 347 346 340 324 298 275 263 258 256 253 249 247 251 265 278 282 279 277 279 280 275 274
229 224 223 226 226 226 224 220 217 212 210 205 200 198 197 194 186 178 174 171 172 174 174 172 148 7 355 348 345 349 356 4 13 18 24 21 20 17 14 15 13 11 9 9 7 4 2 359 356 353 350 349 344 343 341 340 340 339 340 339 341 341 342 347 348 347 343 329 302 277 262 255 252 250 249 244 249 265 272 271 271 274 277 275 273
232 230 228 231 230 229 227 224 221 217 215 212 205 201 203 204 197 188 184 181 180 183 186 194 266 324 332 334 336 339 343 347 357 0 5 6 4 4 3 4 3 5 5 3 2 0 359 355 353 351 347 347 344 343 341 338 336 332 333 334 336 337 337 339 339 340 341 336 323 298 273 261 254 252 252 249 247 249 253 257 261 267 272 272 272
233 232 231 233 233 232 231 228 226 222 219 216 211 206 207 209 205 198 194 193 192 194 201 220 258 292 312 323 323 318 321 322 329 334 335 339 340 343 345 347 351 355 356 356 356 354 352 349 346 344 340 339 337 335 332 329 326 326 327 327 328 329 327 326 327 330 333 333 327 314 293 275 264 258 256 255 256 257 257 258 261 265 267 271 272
232 232 231 232 233 233 233 232 229 225 222 219 215 211 210 212 211 206 201 202 203 205 212 227 249 275 295 300 298 293 292 296 304 310 314 321 326 332 336 339 342 345 347 348 348 346 343 341 336 333 330 327 326 324 322 320 319 319 319 320 322 322 322 323 325 326 325 321 314 307 296 285 272 266 263 260 262 264 267 268 269 267 265 267 272
234 232 232 232 232 233 233 232 230 227 225 222 219 215 213 214 215 211 208 209 211 213 219 230 246 264 281 287 286 282 278 281 285 293 301 308 314 320 323 324 327 328 331 333 334 334 331 329 327 324 322 319 318 317 316 316 316 316 316 317 318 319 320 322 323 323 319 314 309 302 296 290 284 277 274 272 271 272 276 278 278 277 272 270 272
237 237 237 237 235 233 232 232 231 229 226 224 221 219 217 216 217 215 213 212 215 218 222 230 241 256 272 280 280 276 273 272 274 281 287 294 298 301 304 305 308 311 314 317 319 320 320 319 319 318 317 316 315 314 313 312 312 312 312 312 313 314 316 318 319 320 320 318 313 308 302 296 291 286 282 280 278 278 281 283 283 282 282 281 279
245 245 243 241 239 236 234 233 232 231 228 226 224 222 219 218 218 217 216 216 217 219 222 229 237 248 261 269 268 265 263 262 265 269 275 280 284 286 287 289 292 299 303 306 309 311 313 313 314 314 315 315 314 313 312 311 311 311 311 311 311 312 314 315 316 318 320 320 318 315 312 307 302 297 291 286 283 281 281 282 284 285 286 286 286
250 246 243 242 242 240 238 235 235 234 231 228 228 226 222 220 220 218 218 218 218 220 223 229 234 243 252 259 260 256 255 256 258 262 267 270 272 274 275 279 285 291 297 300 302 304 306 308 311 313 315 316 316 316 314 312 311 312 315 317 318 319 321 321 321 322 322 322 320 318 315 313 310 306 302 297 293 290 288 285 284 286 288 288 288
245 243 243 243 243 242 240 238 237 237 235 232 231 230 226 223 223 221 221 220 220 221 223 228 233 241 248 254 255 253 252 253 256 259 262 265 265 267 270 276 282 288 292 294 296 298 300 304 308 313 317 320 321 320 319 317 315 314 316 318 321 323 325 325 326 327 327 326 324 320 317 313 311 308 306 302 299 296 294 292 290 288 287 287 288
247 247 245 243 242 240 240 239 238 238 236 235 233 232 230 227 225 223 223 222 222 222 224 228 234 240 246 251 252 250 249 250 253 256 259 262 263 265 269 275 281 285 287 290 291 294 298 303 309 315 320 323 324 323 322 320 317 316 316 317 320 322 323 323 325 327 328 329 328 326 321 316 312 308 305 301 299 297 294 294 293 292 290 288 286
251 250 246 243 242 240 239 239 238 238 236 235 234 234 233 230 227 225 224 223 223 224 226 229 235 240 245 248 248 247 246 248 250 254 258 260 262 265 269 274 278 281 284 286 289 294 300 306 312 319 324 327 327 326 324 321 317 315 314 314 315 317 317 317 318 320 323 325 326 326 323 319 314 309 304 301 297 295 293 291 290 289 288 287 286
249 249 247 244 243 242 240 239 239 238 236 234 234 235 234 232 229 227 225 224 224 225 227 231 236 240 244 245 244 244 243 244 248 253 256 258 260 264 268 272 275 277 281 284 289 296 302 308 314 319 324 327 328 327 326 323 321 318 316 314 315 316 314 314 313 314 315 316 317 319 319 317 313 309 304 301 301 299 296 292 289 287 285 285 284
249 248 247 246 245 243 241 240 239 238 236 233 233 233 234 233 231 230 227 226 226 226 228 231 236 240 243 243 241 240 240 241 246 251 255 257 259 261 265 268 270 274 278 284 291 296 302 306 310 315 320 325 328 328 328 327 326 325 323 321 320 320 319 318 316 314 313 313 314 314 315 313 310 308 305 304 304 304 300 295 291 289 287 285 283
248 246 246 246 245 244 243 242 239 237 236 233 233 232 233 234 232 231 228 227 228 228 229 231 236 239 241 240 238 236 236 240 243 249 253 256 258 260 263 264 268 273 278 285 291 296 300 304 308 314 319 325 328 330 330 329 329 330 329 327 324 323 323 324 321 319 317 317 318 317 316 315 313 311 308 306 305 302 300 296 292 290 288 285 283
247 247 246 244 243 244 244 243 240 236 235 233 232 231 232 232 232 230 228 228 228 229 230 232 236 238 239 238 236 234 234 238 241 246 251 254 257 258 260 262 266 272 279 286 291 295 299 305 310 316 322 326 329 330 330 328 329 331 331 329 327 325 327 328 325 322 321 321 321 318 317 318 317 314 309 305 300 296 295 295 293 289 287 284 283
249 248 244 242 242 244 244 243 241 238 236 234 232 231 231 231 231 230 229 229 229 230 231 233 235 236 238 237 235 233 233 236 240 245 249 252 255 255 256 258 263 271 279 287 292 297 302 307 311 316 321 325 327 327 326 325 327 328 329 329 328 328 329 331 329 325 322 322 320 317 318 321 320 316 309 300 296 298 298 299 299 295 290 286 283
250 246 243 243 242 242 243 242 241 239 237 234 231 230 230 230 230 230 230 231 231 231 233 234 235 235 236 236 234 233 233 236 240 243 247 249 250 251 251 253 261 270 280 289 296 300 305 308 310 315 319 323 326 325 323 324 326 327 327 327 327 327 326 328 329 325 320 319 320 321 326 330 330 329 323 318 316 316 310 303 300 298 294 290 289
248 245 244 244 241 241 242 241 241 240 237 234 232 230 229 229 230 230 230 231 231 232 234 235 235 234 235 235 234 233 233 235 239 242 245 246 247 247 248 251 260 270 282 293 299 304 307 308 309 312 317 322 324 323 323 325 326 327 327 326 324 324 324 326 327 323 320 320 323 328 337 342 343 342 333 327 324 323 320 313 305 301 300 298 297
250 247 244 241 240 240 240 241 240 239 238 235 232 230 229 229 230 231 231 232 232 233 235 236 236 235 234 235 235 234 233 235 239 242 243 244 245 244 246 251 259 271 284 294 301 305 307 307 308 310 314 319 321 323 325 326 326 326 326 324 323 324 325 327 328 326 324 325 330 340 351 350 340 332 327 327 328 328 329 326 320 315 311 308 305
253 248 243 239 238 238 238 240 240 239 238 235 232 230 229 230 230 231 232 232 233 234 236 236 237 235 234 234 234 233 233 235 238 241 242 242 242 243 244 249 258 271 283 293 300 304 305 306 307 309 313 318 322 325 326 327 327 326 324 323 324 326 327 329 329 329 329 329 335 346 349 339 329 327 329 332 332 331 331 329 325 322 320 317 314
251 248 243 240 238 238 237 238 238 237 237 235 233 230 229 230 230 231 232 233 234 235 236 236 237 236 235 234 233 233 233 235 238 239 240 239 240 241 242 247 256 269 281 290 299 302 304 304 305 309 314 321 326 327 327 327 327 326 324 325 326 327 327 329 329 330 331 328 331 339 337 331 328 331 333 332 331 330 329 326 323 323 323 322 319
248 246 242 238 236 236 235 235 235 234 235 234 232 230 229 229 229 230 230 231 232 233 235 236 237 235 234 234 233 233 233 235 238 238 238 237 237 239 241 246 255 266 277 287 297 301 302 301 303 308 315 324 329 328 326 326 328 328 327 326 326 327 328 329 330 332 332 326 329 334 332 330 333 334 331 329 328 327 324 321 320 320 320 320 318
246 244 240 236 234 233 232 232 233 233 232 231 229 227 226 226 227 228 228 230 231 233 235 236 237 235 234 233 232 232 233 234 236 237 236 235 235 237 240 245 253 263 274 286 296 300 299 299 301 305 312 323 328 326 325 327 329 327 325 325 327 329 330 331 333 336 334 328 329 331 330 331 332 330 327 326 325 323 321 317 315 314 315 316 315
241 240 238 235 232 231 230 231 231 232 232 231 229 227 226 226 227 229 230 231 232 233 234 235 236 235 233 232 232 232 233 234 236 236 235 234 235 237 240 245 253 262 273 284 294 297 296 297 300 304 310 319 327 327 327 329 331 329 327 326 327 329 331 335 337 342 334 326 326 327 327 327 326 325 323 322 322 321 319 316 314 314 315 317 316
237 237 236 234 232 231 231 231 231 231 233 233 233 232 232 233 234 235 235 235 236 237 237 238 238 236 234 232 231 232 234 235 235 236 235 235 236 238 241 246 252 260 270 281 291 295 294 294 298 302 307 316 327 330 330 332 333 334 332 329 329 327 330 337 335 332 328 322 322 324 323 324 323 324 322 320 321 320 320 319 318 318 318 319 320
237 236 234 232 231 230 230 231 231 233 234 235 235 235 236 237 238 239 238 238 238 239 239 240 239 237 235 233 232 233 234 235 236 237 236 236 237 239 241 245 250 259 269 280 289 292 291 292 295 299 304 314 324 329 330 332 331 332 334 333 333 330 330 333 327 326 326 320 322 324 322 323 323 322 321 319 320 320 320 320 319 320 320 321 321
233 233 231 230 230 230 231 231 232 234 235 235 236 236 236 236 236 237 238 239 239 239 238 237 237 236 234 233 233 234 235 236 237 238 237 236 238 239 241 244 250 259 268 279 287 290 289 291 294 297 303 311 319 324 327 329 328 330 334 335 336 333 329 329 325 325 328 322 322 323 321 323 323 322 321 320 319 318 318 319 319 320 320 320 320
231 232 231 231 232 232 232 232 233 234 235 235 234 234 232 231 231 230 230 232 232 233 233 232 232 233 233 233 234 235 236 237 237 238 237 237 238 239 241 244 249 257 266 277 284 287 287 289 292 297 302 308 313 319 322 325 324 326 331 332 332 324 317 324 325 321 322 320 318 321 323 324 323 322 322 320 319 318 318 318 318 318 319 319 319
232 233 233 233 234 233 233 232 233 233 234 234 233 232 232 231 230 229 228 228 228 230 234 235 235 235 236 235 235 236 236 237 237 237 237 237 238 239 241 244 248 255 263 273 281 283 284 286 290 295 300 305 307 312 316 319 320 320 324 325 321 309 307 317 319 313 316 319 317 320 323 322 321 320 321 320 318 318 318 317 317 317 318 318 319
233 232 232 233 234 233 232 232 231 232 232 231 231 231 231 231 233 234 235 236 236 239 240 240 241 241 240 238 237 236 236 236 236 236 236 236 237 239 240 243 247 252 259 268 276 279 280 282 287 292 297 301 303 307 312 314 315 316 318 320 318 310 303 306 306 305 311 315 315 319 320 319 319 319 320 319 317 317 316 317 317 316 317 318 320
232 230 230 231 231 230 230 230 230 230 230 230 230 230 231 232 233 236 238 241 244 246 245 244 244 243 240 239 238 237 236 236 236 236 236 236 237 238 240 242 246 251 257 264 271 275 277 280 285 291 295 298 300 305 309 310 311 312 316 320 319 318 311 309 309 306 306 306 310 317 320 318 317 317 317 315 315 316 316 316 315 315 317 319 319
231 231 231 229 228 228 227 227 228 228 228 228 229 230 231 232 234 237 239 242 244 245 245 244 244 243 241 239 237 237 236 235 235 235 235 236 237 238 239 242 246 250 255 262 269 273 276 278 283 289 292 295 298 302 306 307 307 310 316 319 320 320 317 317 319 316 312 308 309 316 320 319 318 316 314 313 314 314 314 314 314 315 317 317 318
232 232 230 228 226 225 225 225 225 225 226 227 228 229 230 231 233 236 240 242 242 241 241 241 241 241 240 239 237 236 235 234 234 235 236 236 237 238 239 242 245 249 256 262 268 272 275 278 282 286 289 291 295 300 302 303 305 310 315 317 319 321 319 321 324 322 320 315 312 315 319 320 318 316 315 313 313 312 312 312 312 314 315 316 318
230 229 227 226 225 224 224 224 223 224 225 226 227 228 228 230 232 235 238 240 241 241 240 240 239 238 238 238 237 236 235 234 235 236 236 236 236 237 239 241 245 250 256 261 266 271 274 277 281 284 286 289 293 297 299 300 303 309 313 314 316 318 319 322 326 325 323 322 318 316 318 320 315 313 314 314 313 312 311 311 311 312 313 315 318